Погода в Згеже

Польша     51°51′21″N   19°24′19″E
темп.,
°C
ветер,
м/с
пор.,
м/с
влажн.,
%
обл.,
%
осадки,
мм/ч
давл.,
гПа
погр.,
м
26 февраля, пт
пт2601:00+7зюз49860 0.0 1026169
04:00+6з34930 0.0 102680
07:00+5зюз239613 0.0 102547
10:00+9з348796 0.0 1025208
13:00+7сз479598 1.3 1025331
16:00+6сз51091100 0.3 1024506
19:00+5зсз51180100 0.4 1026630
22:00+4зсз61281100 0.0 1026619
27 февраля, сб
сб2701:00+3зсз6139076 0.0 1027628
04:00+2зсз6139138 0.0 1027721
07:00+3зсз6129068 0.0 1028701
10:00+4сз6108298 0.0 1030678
13:00+5сз697299 0.1 10311062
16:00+6сз6968100 0.1 10311059
19:00+4сз4107789 0.1 1033480
22:00+2сз38850 0.0 1033246
28 февраля, вс
вс2801:000сз36900 0.0 1035197
04:000зсз369015 0.0 1034194
07:000зсз358446 0.0 1035202
10:00+3зсз466865 0.0 1034365
13:00+6зсз465532 0.0 1034573
16:00+6зсз48570 0.0 1032619
19:00+4зсз49853 0.0 1033276
22:00+3сз389517 0.0 1033256
1 марта, пн
пн101:00+2ссз379553 0.0 1034279
04:00+1ссз369642 0.0 1034171
07:000с359735 0.0 1036157
10:00+4ссв237610 0.0 1036282
13:00+8с23645 0.0 1037598
16:00+8с12660 0.0 1036664
19:00+5всв11810 0.0 103722
22:00+4ю12860 0.0 103722
2 марта, вт
вт201:00+3ююз22890 0.0 103823
04:00+2ю22900 0.0 103730
07:00+1ю23900 0.0 103748
10:00+5ю24680 0.0 1037293
13:00+9ю34480 0.0 1035463
16:00+9ююз25520 0.0 1033430
19:00+6ю33650 0.0 103373
22:00+4ююз37700 0.0 1033137